Location: USNO
(38.9242°N, 77.0663°W)
Time: 19:32:49
(UTC-05:00)

Hubble Space Telescope - Pass Details

Date: 07 October 2017
Orbit: 538 x 541 km, 28.5° (Epoch: 09 December)

Event Time Altitude Azimuth Distance (km) Brightness Sun altitude
Exits shadow 05:37:13 18° 195° (SSW) 1,348 2.6 -18.8°
Maximum altitude 05:37:46 19° 184° (S) 1,328 2.6 -18.7°
Drops below altitude 10° 05:40:41 10° 139° (SE) 1,787 3.9 -18.2°
Sets 05:43:27 0° 121° (ESE) 2,678 5.2 -17.6°
